Lihue, HI

11:39 AM HST on June 22, 2017 (GMT -1000)
Lihue

Weather History for PHLI - February, 2011

Change the Weather History Date:

Friday, February 25, 2011

  Actual Average Record
Temperature  
Mean Temperature 73 °F 72 °F  
Max Temperature 80 °F 78 °F 84 °F (1978)
Min Temperature 66 °F 66 °F 55 °F (1957)
Degree Days  
Heating Degree Days 0 0  
Month to date heating degree days 0 0  
Since 1 July heating degree days 0 0  
Cooling Degree Days 8 7  
Month to date cooling degree days 167 175  
Year to date cooling degree days 385 384  
Growing Degree Days 22 (Base 50)    
Moisture  
Dew Point 65 °F    
Average Humidity 81    
Maximum Humidity 100    
Minimum Humidity 62    
Precipitation  
Precipitation 0.00 in 0.12 in 3.24 in (1956)
Month to date precipitation 4.65 2.79  
Year to date precipitation 8.76 6.54  
Snow  
Snow 0.00 in - - ()
Month to date snowfall 0.0  
Since 1 July snowfall 0.0  
Snow Depth 0.00 in    
Sea Level Pressure  
Sea Level Pressure 30.00 in    
Wind  
Wind Speed 6 mph (ENE)    
Max Wind Speed 13 mph    
Max Gust Speed 15 mph    
Visibility 10 miles    
Events      
T = Trace of Precipitation, MM = Missing Value Source: NWS Daily Summary

Daily Weather History Graph

Daily Weather History Graph

Search for Another Location

Airport or City:

Trip Planner

Search our weather history database for the weather conditions in past years. The results will help you decide how hot, cold, wet, or windy it might be!

Date:

Astronomy

Feb. 25, 2011 Rise Set
Actual Time 7:01 AM HST 6:39 PM HST
Civil Twilight 6:38 AM HST 7:02 PM HST
Nautical Twilight 6:12 AM HST 7:28 PM HST
Astronomical Twilight 5:47 AM HST 7:54 PM HST
Moon 1:43 AM HST (2/25) 12:43 PM HST (2/25)
Length of Visible Light 12h 23m
Length of Day
11h 38m
Last Quarter, 40% of the Moon is Illuminated
Feb 25
Last Quarter
Mar 4
New
Mar 12
First Quarter
Mar 19
Full
Mar 26
Last Quarter

Hourly Weather History & Observations

Time (HST) Temp. Dew Point Humidity Pressure Visibility Wind Dir Wind Speed Gust Speed Precip Events Conditions
12:37 AM 71.6 °F 66.2 °F 83% 29.98 in 10.0 mi NE 10.4 mph - N/A   Mostly Cloudy
12:53 AM 72.0 °F 66.6 °F 83% 29.97 in 10.0 mi NNE 8.1 mph - N/A   Mostly Cloudy
1:20 AM 71.6 °F 66.2 °F 83% 29.97 in 10.0 mi Variable 3.5 mph - N/A   Mostly Cloudy
1:53 AM 72.7 °F 66.6 °F 81% 29.96 in 10.0 mi East 9.2 mph - N/A   Scattered Clouds
2:53 AM 71.8 °F 64.8 °F 78% 29.96 in 10.0 mi East 5.8 mph - N/A   Clear
3:53 AM 71.6 °F 64.6 °F 78% 29.95 in 10.0 mi West 4.6 mph - N/A   Scattered Clouds
4:53 AM 67.1 °F 63.9 °F 89% 29.96 in 10.0 mi WSW 4.6 mph - N/A   Partly Cloudy
5:53 AM 66.4 °F 63.9 °F 92% 29.96 in 10.0 mi West 6.9 mph - N/A   Clear
6:53 AM 67.8 °F 63.3 °F 85% 29.98 in 10.0 mi West 6.9 mph - N/A   Clear
7:53 AM 66.9 °F 64.4 °F 92% 29.99 in 10.0 mi WNW 6.9 mph - N/A   Clear
8:53 AM 72.7 °F 66.9 °F 82% 30.01 in 10.0 mi Calm Calm - N/A   Partly Cloudy
9:53 AM 75.7 °F 66.9 °F 74% 30.02 in 10.0 mi NE 5.8 mph - N/A   Scattered Clouds
10:53 AM 78.1 °F 66.9 °F 68% 30.04 in 10.0 mi East 6.9 mph - N/A   Clear
11:05 AM 78.8 °F 66.2 °F 65% 30.04 in 2.5 mi ESE 5.8 mph - N/A   Haze
11:14 AM 78.8 °F 68.0 °F 69% 30.04 in 10.0 mi East 5.8 mph - N/A   Clear
11:53 AM 78.1 °F 66.9 °F 68% 30.02 in 10.0 mi East 5.8 mph - N/A   Partly Cloudy
12:53 PM 78.1 °F 66.0 °F 66% 29.99 in 10.0 mi ESE 4.6 mph - N/A   Clear
1:53 PM 79.0 °F 64.9 °F 62% 29.97 in 10.0 mi East 4.6 mph - N/A   Clear
2:53 PM 79.0 °F 66.0 °F 64% 29.96 in 10.0 mi East 9.2 mph - N/A   Clear
3:53 PM 78.1 °F 64.9 °F 64% 29.96 in 10.0 mi East 6.9 mph - N/A   Clear
4:53 PM 78.1 °F 66.0 °F 66% 29.98 in 10.0 mi ESE 3.5 mph - N/A   Clear
5:53 PM 75.9 °F 64.9 °F 69% 29.99 in 10.0 mi East 3.5 mph - N/A   Clear
6:53 PM 73.9 °F 64.0 °F 71% 29.99 in 10.0 mi ENE 3.5 mph - N/A   Clear
7:53 PM 71.1 °F 64.9 °F 81% 30.02 in 10.0 mi WNW 4.6 mph - N/A   Clear
8:53 PM 69.1 °F 64.9 °F 87% 30.06 in 10.0 mi WNW 4.6 mph - N/A   Clear
9:53 PM 69.1 °F 64.0 °F 84% 30.06 in 10.0 mi West 9.2 mph - N/A   Clear
10:53 PM 68.0 °F 63.0 °F 84% 30.08 in 10.0 mi WNW 6.9 mph - N/A   Clear
11:53 PM 66.9 °F 63.0 °F 87% 30.09 in 10.0 mi West 6.9 mph - N/A   Clear